Location: Downe
(51.3167°N, 0.0500°E)
Time: 21:09:17
(UTC+00:00)

Cosmos 1833 Rocket - Pass Details

Date: 17 November 2019
Orbit: 832 x 840 km, 71.0° (Epoch: 09 December)

Event Time Altitude Azimuth Distance (km) Brightness Sun altitude
Exits shadow 06:22:40 11° 296° (WNW) 2,386 4.4 -9.0°
Maximum altitude 06:25:50 16° 332° (NNW) 2,037 4.3 -8.5°
Drops below altitude 10° 06:29:19 10° 10° (N) 2,459 5.0 -8.0°
Sets 06:32:46 0° 31° (NNE) 3,398 6.0 -7.5°
